Time,TemperatureF,DewpointF,PressureIn,WindDirection,WindDirectionDegrees,WindSpeedMPH,WindSpeedGustMPH,Humidity,HourlyPrecipIn,Conditions,Clouds,dailyrainin,SoftwareType,DateUTC
2013-05-01 00:02:00,55.9,32.5,29.60,NW,322,14.0,21.0,41,0.00,,,0.00,Wunderground v.1.15,2013-05-01 06:02:00,
2013-05-01 00:04:00,55.6,32.8,29.60,NNW,342,14.0,21.0,42,0.00,,,0.00,Wunderground v.1.15,2013-05-01 06:04:00,
2013-05-01 00:08:00,55.0,33.5,29.60,WNW,298,13.0,21.0,44,0.00,,,0.00,Wunderground v.1.15,2013-05-01 06:08:00,
2013-05-01 00:10:00,54.5,33.6,29.60,NNW,327,12.0,12.0,45,0.00,,,0.00,Wunderground v.1.15,2013-05-01 06:10:00,
2013-05-01 00:14:00,54.1,33.8,29.60,WNW,302,11.0,12.0,46,0.00,,,0.00,Wunderground v.1.15,2013-05-01 06:14:00,
2013-05-01 00:18:00,53.6,33.8,29.64,WNW,294,12.0,18.0,47,0.00,,,0.00,Wunderground v.1.15,2013-05-01 06:18:00,
2013-05-01 00:20:00,53.3,33.6,29.64,WNW,295,12.0,12.0,47,0.00,,,0.00,Wunderground v.1.15,2013-05-01 06:20:00,
2013-05-01 00:24:00,53.1,33.9,29.64,NNW,338,12.0,13.0,48,0.00,,,0.00,Wunderground v.1.15,2013-05-01 06:24:00,
2013-05-01 00:26:00,52.8,34.2,29.64,WNW,296,12.0,13.0,49,0.00,,,0.00,Wunderground v.1.15,2013-05-01 06:26:00,
2013-05-01 00:28:00,52.6,34.0,29.64,NNW,343,11.0,13.0,49,0.00,,,0.00,Wunderground v.1.15,2013-05-01 06:28:00,
2013-05-01 00:30:00,52.3,34.2,29.64,NW,321,10.0,21.0,50,0.00,,,0.00,Wunderground v.1.15,2013-05-01 06:30:00,
2013-05-01 00:32:00,52.2,34.1,29.67,NW,326,11.0,21.0,50,0.00,,,0.00,Wunderground v.1.15,2013-05-01 06:32:00,
2013-05-01 00:36:00,51.7,33.6,29.67,WNW,299,10.0,21.0,50,0.00,,,0.00,Wunderground v.1.15,2013-05-01 06:36:00,
2013-05-01 00:38:00,51.4,33.9,29.67,NW,308,9.0,21.0,51,0.00,,,0.00,Wunderground v.1.15,2013-05-01 06:38:00,
2013-05-01 00:40:00,51.1,34.1,29.67,NW,315,11.0,11.0,52,0.00,,,0.00,Wunderground v.1.15,2013-05-01 06:40:00,
2013-05-01 00:42:00,51.0,34.0,29.67,NW,306,10.0,18.0,52,0.00,,,0.00,Wunderground v.1.15,2013-05-01 06:42:00,
2013-05-01 00:48:00,50.1,34.5,29.72,NNW,346,12.0,18.0,55,0.00,,,0.00,Wunderground v.1.15,2013-05-01 06:48:00,
2013-05-01 00:50:00,49.8,34.7,29.72,WNW,283,12.0,17.0,56,0.00,,,0.00,Wunderground v.1.15,2013-05-01 06:50:00,
2013-05-01 00:52:00,49.5,34.9,29.72,NW,312,13.0,17.0,57,0.00,,,0.00,Wunderground v.1.15,2013-05-01 06:52:00,
2013-05-01 00:54:00,49.2,35.0,29.72,NW,321,13.0,17.0,58,0.00,,,0.00,Wunderground v.1.15,2013-05-01 06:54:00,
2013-05-01 00:56:00,48.9,34.8,29.72,NNW,337,14.0,17.0,58,0.00,,,0.00,Wunderground v.1.15,2013-05-01 06:56:00,
2013-05-01 00:58:00,48.8,34.7,29.72,NW,323,13.0,17.0,58,0.00,,,0.00,Wunderground v.1.15,2013-05-01 06:58:00,
2013-05-01 01:00:00,48.5,34.4,29.72,WNW,292,13.0,13.0,58,0.00,,,0.00,Wunderground v.1.15,2013-05-01 07:00:00,
2013-05-01 01:04:00,48.2,34.1,29.76,NW,321,12.0,16.0,58,0.00,,,0.00,Wunderground v.1.15,2013-05-01 07:04:00,
2013-05-01 01:08:00,48.2,34.1,29.76,NW,325,11.0,16.0,58,0.00,,,0.00,Wunderground v.1.15,2013-05-01 07:08:00,
2013-05-01 01:12:00,47.7,34.5,29.76,NW,320,10.0,10.0,60,0.00,,,0.00,Wunderground v.1.15,2013-05-01 07:12:00,
2013-05-01 01:14:00,47.4,34.6,29.76,NNW,338,10.0,11.0,61,0.00,,,0.00,Wunderground v.1.15,2013-05-01 07:14:00,
2013-05-01 01:16:00,47.0,34.6,29.80,NW,323,10.0,11.0,62,0.00,,,0.00,Wunderground v.1.15,2013-05-01 07:16:00,
2013-05-01 01:18:00,46.8,34.9,29.80,NW,325,10.0,12.0,63,0.00,,,0.00,Wunderground v.1.15,2013-05-01 07:18:00,
2013-05-01 01:20:00,46.5,35.0,29.80,WNW,300,10.0,10.0,64,0.00,,,0.00,Wunderground v.1.15,2013-05-01 07:20:00,
2013-05-01 01:22:00,46.2,34.7,29.80,North,5,10.0,10.0,64,0.00,,,0.00,Wunderground v.1.15,2013-05-01 07:22:00,
2013-05-01 01:24:00,46.1,35.0,29.80,NW,306,10.0,17.0,65,0.00,,,0.00,Wunderground v.1.15,2013-05-01 07:24:00,
2013-05-01 01:28:00,45.7,34.6,29.80,WNW,294,10.0,17.0,65,0.00,,,0.00,Wunderground v.1.15,2013-05-01 07:28:00,
2013-05-01 01:30:00,45.7,34.6,29.80,NW,313,11.0,11.0,65,0.00,,,0.00,Wunderground v.1.15,2013-05-01 07:30:00,
2013-05-01 01:34:00,45.5,34.4,29.82,North,355,10.0,23.0,65,0.00,,,0.00,Wunderground v.1.15,2013-05-01 07:34:00,
2013-05-01 01:36:00,45.4,34.3,29.82,NW,321,10.0,23.0,65,0.00,,,0.00,Wunderground v.1.15,2013-05-01 07:36:00,
2013-05-01 01:38:00,45.2,34.1,29.82,NW,314,11.0,23.0,65,0.00,,,0.00,Wunderground v.1.15,2013-05-01 07:38:00,
2013-05-01 01:40:00,45.1,34.0,29.82,NW,310,11.0,12.0,65,0.00,,,0.00,Wunderground v.1.15,2013-05-01 07:40:00,
2013-05-01 01:42:00,44.9,33.8,29.82,WNW,299,11.0,12.0,65,0.00,,,0.00,Wunderground v.1.15,2013-05-01 07:42:00,
2013-05-01 01:44:00,44.8,33.7,29.82,NNW,346,11.0,12.0,65,0.00,,,0.00,Wunderground v.1.15,2013-05-01 07:44:00,
2013-05-01 01:46:00,44.8,33.7,29.85,NNW,344,10.0,15.0,65,0.00,,,0.00,Wunderground v.1.15,2013-05-01 07:46:00,
2013-05-01 01:48:00,44.6,33.9,29.85,NW,317,10.0,15.0,66,0.00,,,0.00,Wunderground v.1.15,2013-05-01 07:48:00,
2013-05-01 01:52:00,44.5,33.8,29.85,NW,315,8.0,10.0,66,0.00,,,0.00,Wunderground v.1.15,2013-05-01 07:52:00,
2013-05-01 01:54:00,44.3,33.7,29.85,WNW,300,7.0,10.0,66,0.00,,,0.00,Wunderground v.1.15,2013-05-01 07:54:00,
2013-05-01 01:56:00,44.2,33.2,29.85,SW,226,6.0,10.0,65,0.00,,,0.00,Wunderground v.1.15,2013-05-01 07:56:00,
2013-05-01 01:58:00,44.1,33.1,29.85,WNW,288,4.0,10.0,65,0.00,,,0.00,Wunderground v.1.15,2013-05-01 07:58:00,
2013-05-01 02:00:00,43.9,32.9,29.85,WNW,293,4.0,9.0,65,0.00,,,0.00,Wunderground v.1.15,2013-05-01 08:00:00,
2013-05-01 02:02:00,43.9,33.3,29.85,NW,321,5.0,9.0,66,0.00,,,0.00,Wunderground v.1.15,2013-05-01 08:02:00,
2013-05-01 02:06:00,43.5,32.9,29.85,NW,304,8.0,9.0,66,0.00,,,0.00,Wunderground v.1.15,2013-05-01 08:06:00,
2013-05-01 02:08:00,43.3,33.1,29.85,NW,304,9.0,9.0,67,0.00,,,0.00,Wunderground v.1.15,2013-05-01 08:08:00,
2013-05-01 02:10:00,43.3,33.1,29.85,NW,322,9.0,10.0,67,0.00,,,0.00,Wunderground v.1.15,2013-05-01 08:10:00,
2013-05-01 02:14:00,43.2,33.0,29.85,NW,325,8.0,10.0,67,0.00,,,0.00,Wunderground v.1.15,2013-05-01 08:14:00,
2013-05-01 02:16:00,43.2,33.0,29.86,NNW,327,7.0,10.0,67,0.00,,,0.00,Wunderground v.1.15,2013-05-01 08:16:00,
2013-05-01 02:18:00,43.2,33.0,29.86,NW,312,6.0,10.0,67,0.00,,,0.00,Wunderground v.1.15,2013-05-01 08:18:00,
2013-05-01 02:20:00,43.2,33.0,29.86,NW,321,5.0,5.0,67,0.00,,,0.00,Wunderground v.1.15,2013-05-01 08:20:00,
2013-05-01 02:24:00,43.2,33.0,29.86,NW,315,3.0,5.0,67,0.00,,,0.00,Wunderground v.1.15,2013-05-01 08:24:00,
2013-05-01 02:28:00,43.3,32.7,29.86,NW,309,3.0,10.0,66,0.00,,,0.00,Wunderground v.1.15,2013-05-01 08:28:00,
2013-05-01 02:30:00,43.3,32.7,29.86,NW,306,3.0,5.0,66,0.00,,,0.00,Wunderground v.1.15,2013-05-01 08:30:00,
2013-05-01 02:32:00,43.3,32.3,29.87,WNW,298,3.0,5.0,65,0.00,,,0.00,Wunderground v.1.15,2013-05-01 08:32:00,
2013-05-01 02:38:00,43.5,32.5,29.87,NW,308,4.0,8.0,65,0.00,,,0.00,Wunderground v.1.15,2013-05-01 08:38:00,
2013-05-01 02:40:00,43.5,32.1,29.87,WNW,302,4.0,4.0,64,0.00,,,0.00,Wunderground v.1.15,2013-05-01 08:40:00,
2013-05-01 02:42:00,43.5,33.3,29.87,NW,309,4.0,4.0,67,0.00,,,0.00,Wunderground v.1.15,2013-05-01 08:42:00,
2013-05-01 02:44:00,43.6,32.2,29.87,WNW,302,4.0,4.0,64,0.00,,,0.00,Wunderground v.1.15,2013-05-01 08:44:00,
2013-05-01 02:48:00,43.6,31.8,29.87,NW,311,4.0,4.0,63,0.00,,,0.00,Wunderground v.1.15,2013-05-01 08:48:00,
2013-05-01 02:50:00,43.6,31.8,29.87,NNW,344,3.0,3.0,63,0.00,,,0.00,Wunderground v.1.15,2013-05-01 08:50:00,
2013-05-01 02:54:00,43.6,31.8,29.87,NNW,331,3.0,3.0,63,0.00,,,0.00,Wunderground v.1.15,2013-05-01 08:54:00,
2013-05-01 02:58:00,43.8,31.6,29.87,North,355,2.0,4.0,62,0.00,,,0.00,Wunderground v.1.15,2013-05-01 08:58:00,
2013-05-01 03:00:00,43.8,31.6,29.87,North,351,2.0,3.0,62,0.00,,,0.00,Wunderground v.1.15,2013-05-01 09:00:00,
2013-05-01 03:02:00,43.8,31.2,29.89,NW,319,2.0,6.0,61,0.00,,,0.00,Wunderground v.1.15,2013-05-01 09:02:00,
2013-05-01 03:04:00,43.8,31.2,29.89,NNW,328,2.0,6.0,61,0.00,,,0.00,Wunderground v.1.15,2013-05-01 09:04:00,
2013-05-01 03:06:00,43.6,31.0,29.89,NNW,344,3.0,6.0,61,0.00,,,0.00,Wunderground v.1.15,2013-05-01 09:06:00,
2013-05-01 03:08:00,43.6,31.0,29.89,NW,321,3.0,6.0,61,0.00,,,0.00,Wunderground v.1.15,2013-05-01 09:08:00,
2013-05-01 03:10:00,43.6,31.0,29.89,North,355,4.0,4.0,61,0.00,,,0.00,Wunderground v.1.15,2013-05-01 09:10:00,
2013-05-01 03:12:00,43.6,31.0,29.89,North,11,4.0,4.0,61,0.00,,,0.00,Wunderground v.1.15,2013-05-01 09:12:00,
2013-05-01 03:14:00,43.6,31.0,29.89,NW,308,4.0,4.0,61,0.00,,,0.00,Wunderground v.1.15,2013-05-01 09:14:00,
2013-05-01 03:16:00,43.5,30.5,29.90,WNW,291,4.0,6.0,60,0.00,,,0.00,Wunderground v.1.15,2013-05-01 09:16:00,
2013-05-01 03:22:00,43.3,31.1,29.90,NNW,329,4.0,4.0,62,0.00,,,0.00,Wunderground v.1.15,2013-05-01 09:22:00,
2013-05-01 03:26:00,43.2,31.4,29.90,North,9,4.0,4.0,63,0.00,,,0.00,Wunderground v.1.15,2013-05-01 09:26:00,
2013-05-01 03:28:00,43.1,32.1,29.90,NNW,338,3.0,4.0,65,0.00,,,0.00,Wunderground v.1.15,2013-05-01 09:28:00,
2013-05-01 03:32:00,42.9,32.7,29.91,NNW,336,3.0,5.0,67,0.00,,,0.00,Wunderground v.1.15,2013-05-01 09:32:00,
2013-05-01 03:34:00,42.6,32.8,29.91,NW,318,4.0,5.0,68,0.00,,,0.00,Wunderground v.1.15,2013-05-01 09:34:00,
2013-05-01 03:38:00,42.3,33.2,29.91,WNW,300,4.0,5.0,70,0.00,,,0.01,Wunderground v.1.15,2013-05-01 09:38:00,
2013-05-01 03:40:00,42.1,33.0,29.91,WSW,255,5.0,5.0,70,0.00,,,0.01,Wunderground v.1.15,2013-05-01 09:40:00,
2013-05-01 03:44:00,41.6,33.2,29.91,SSW,206,5.0,6.0,72,0.09,,,0.02,Wunderground v.1.15,2013-05-01 09:44:00,
2013-05-01 03:46:00,41.3,33.6,29.93,West,273,4.0,6.0,74,0.09,,,0.02,Wunderground v.1.15,2013-05-01 09:46:00,
2013-05-01 03:50:00,40.8,33.2,29.93,WNW,303,3.0,3.0,74,0.09,,,0.03,Wunderground v.1.15,2013-05-01 09:50:00,
2013-05-01 03:56:00,40.2,32.9,29.93,NW,316,3.0,3.0,75,0.09,,,0.03,Wunderground v.1.15,2013-05-01 09:56:00,
2013-05-01 04:02:00,39.9,32.9,29.94,NW,310,2.0,2.0,76,0.05,,,0.03,Wunderground v.1.15,2013-05-01 10:02:00,
2013-05-01 04:04:00,39.8,32.8,29.94,NW,308,1.0,5.0,76,0.04,,,0.03,Wunderground v.1.15,2013-05-01 10:04:00,
2013-05-01 04:06:00,39.8,33.2,29.94,SW,236,1.0,5.0,77,0.04,,,0.04,Wunderground v.1.15,2013-05-01 10:06:00,
2013-05-01 04:10:00,39.8,33.2,29.94,SW,236,1.0,1.0,77,0.04,,,0.04,Wunderground v.1.15,2013-05-01 10:10:00,
2013-05-01 04:12:00,39.6,33.0,29.94,WNW,290,1.0,2.0,77,0.04,,,0.04,Wunderground v.1.15,2013-05-01 10:12:00,
2013-05-01 04:18:00,39.6,33.0,29.93,WNW,288,1.0,2.0,77,0.04,,,0.04,Wunderground v.1.15,2013-05-01 10:18:00,
2013-05-01 04:20:00,39.6,33.0,29.93,WNW,288,1.0,2.0,77,0.04,,,0.05,Wunderground v.1.15,2013-05-01 10:20:00,
2013-05-01 04:24:00,39.5,33.2,29.93,WNW,288,1.0,2.0,78,0.04,,,0.05,Wunderground v.1.15,2013-05-01 10:24:00,
2013-05-01 04:26:00,39.5,33.5,29.93,WNW,288,1.0,2.0,79,0.04,,,0.05,Wunderground v.1.15,2013-05-01 10:26:00,
2013-05-01 04:32:00,39.3,33.0,29.95,NNW,333,1.0,5.0,78,0.06,,,0.06,Wunderground v.1.15,2013-05-01 10:32:00,
2013-05-01 04:34:00,39.3,33.3,29.95,NNW,333,1.0,5.0,79,0.06,,,0.06,Wunderground v.1.15,2013-05-01 10:34:00,
2013-05-01 04:36:00,39.3,33.3,29.95,NNW,333,1.0,5.0,79,0.06,,,0.06,Wunderground v.1.15,2013-05-01 10:36:00,
2013-05-01 04:38:00,39.2,33.2,29.95,NNW,333,1.0,5.0,79,0.06,,,0.06,Wunderground v.1.15,2013-05-01 10:38:00,
2013-05-01 04:42:00,39.2,33.2,29.95,NNW,333,0.0,0.0,79,0.05,,,0.06,Wunderground v.1.15,2013-05-01 10:42:00,
2013-05-01 04:44:00,39.1,33.1,29.95,NNW,333,0.0,0.0,79,0.04,,,0.06,Wunderground v.1.15,2013-05-01 10:44:00,
2013-05-01 04:48:00,39.2,33.2,29.94,NNW,333,0.0,0.0,79,0.04,,,0.07,Wunderground v.1.15,2013-05-01 10:48:00,
2013-05-01 04:50:00,39.1,33.1,29.94,NNW,333,0.0,0.0,79,0.04,,,0.07,Wunderground v.1.15,2013-05-01 10:50:00,
2013-05-01 04:52:00,38.9,32.9,29.94,NNW,333,0.0,0.0,79,0.04,,,0.07,Wunderground v.1.15,2013-05-01 10:52:00,
2013-05-01 04:54:00,38.9,32.9,29.94,NNW,333,0.0,0.0,79,0.07,,,0.08,Wunderground v.1.15,2013-05-01 10:54:00,
2013-05-01 04:56:00,38.8,32.5,29.94,NNW,333,0.0,0.0,78,0.07,,,0.08,Wunderground v.1.15,2013-05-01 10:56:00,
2013-05-01 05:00:00,38.8,33.2,29.95,NNW,333,0.0,0.0,80,0.13,,,0.09,Wunderground v.1.15,2013-05-01 11:00:00,
2013-05-01 05:02:00,38.8,33.2,29.95,NNW,333,0.0,0.0,80,0.16,,,0.10,Wunderground v.1.15,2013-05-01 11:02:00,
2013-05-01 05:06:00,38.3,32.7,29.95,NNW,333,0.0,1.0,80,0.15,,,0.11,Wunderground v.1.15,2013-05-01 11:06:00,
2013-05-01 05:08:00,38.2,32.6,29.95,NNE,23,0.0,4.0,80,0.15,,,0.11,Wunderground v.1.15,2013-05-01 11:08:00,
2013-05-01 05:10:00,38.0,32.4,29.95,NNE,30,1.0,1.0,80,0.14,,,0.12,Wunderground v.1.15,2013-05-01 11:10:00,
2013-05-01 05:12:00,37.8,32.2,29.95,NNE,32,1.0,1.0,80,0.14,,,0.12,Wunderground v.1.15,2013-05-01 11:12:00,
2013-05-01 05:14:00,37.6,32.0,29.95,NNE,32,1.0,1.0,80,0.13,,,0.12,Wunderground v.1.15,2013-05-01 11:14:00,
2013-05-01 05:18:00,37.2,31.9,29.97,ESE,105,2.0,5.0,81,0.13,,,0.13,Wunderground v.1.15,2013-05-01 11:18:00,
2013-05-01 05:22:00,36.9,31.9,29.97,ESE,109,2.0,2.0,82,0.09,,,0.14,Wunderground v.1.15,2013-05-01 11:22:00,
2013-05-01 05:24:00,36.9,31.9,29.97,ESE,110,2.0,2.0,82,0.09,,,0.14,Wunderground v.1.15,2013-05-01 11:24:00,
2013-05-01 05:28:00,36.6,31.9,29.97,ESE,105,2.0,4.0,83,0.08,,,0.14,Wunderground v.1.15,2013-05-01 11:28:00,
2013-05-01 05:30:00,36.6,31.9,29.97,ESE,105,2.0,2.0,83,0.06,,,0.14,Wunderground v.1.15,2013-05-01 11:30:00,
2013-05-01 05:32:00,36.6,32.2,29.98,ESE,105,1.0,2.0,84,0.05,,,0.14,Wunderground v.1.15,2013-05-01 11:32:00,
2013-05-01 05:36:00,36.3,31.9,29.98,East,97,2.0,2.0,84,0.04,,,0.14,Wunderground v.1.15,2013-05-01 11:36:00,
2013-05-01 05:38:00,36.3,31.9,29.98,East,96,1.0,2.0,84,0.00,,,0.14,Wunderground v.1.15,2013-05-01 11:38:00,
2013-05-01 05:42:00,36.3,31.9,29.98,ESE,105,2.0,3.0,84,0.00,,,0.14,Wunderground v.1.15,2013-05-01 11:42:00,
2013-05-01 05:44:00,36.3,31.9,29.98,ESE,106,2.0,3.0,84,0.00,,,0.14,Wunderground v.1.15,2013-05-01 11:44:00,
2013-05-01 05:46:00,36.3,32.2,29.99,ESE,117,2.0,3.0,85,0.00,,,0.14,Wunderground v.1.15,2013-05-01 11:46:00,
2013-05-01 05:48:00,36.5,32.4,29.99,ESE,112,3.0,3.0,85,0.00,,,0.14,Wunderground v.1.15,2013-05-01 11:48:00,
2013-05-01 05:50:00,36.5,32.4,29.99,SE,133,3.0,3.0,85,0.00,,,0.14,Wunderground v.1.15,2013-05-01 11:50:00,
2013-05-01 05:52:00,36.5,32.4,29.99,SSE,162,3.0,3.0,85,0.00,,,0.14,Wunderground v.1.15,2013-05-01 11:52:00,
2013-05-01 05:56:00,36.2,32.1,29.99,ESE,115,3.0,3.0,85,0.00,,,0.14,Wunderground v.1.15,2013-05-01 11:56:00,
2013-05-01 05:58:00,36.3,32.2,29.99,ESE,116,3.0,4.0,85,0.00,,,0.14,Wunderground v.1.15,2013-05-01 11:58:00,
2013-05-01 06:02:00,36.3,32.5,29.98,SE,124,3.0,3.0,86,0.00,,,0.14,Wunderground v.1.15,2013-05-01 12:02:00,
2013-05-01 06:04:00,36.2,32.4,29.98,SE,125,3.0,4.0,86,0.00,,,0.14,Wunderground v.1.15,2013-05-01 12:04:00,
2013-05-01 06:10:00,36.5,32.7,29.98,SE,134,2.0,2.0,86,0.00,,,0.14,Wunderground v.1.15,2013-05-01 12:10:00,
2013-05-01 06:12:00,36.5,32.7,29.98,ESE,109,2.0,5.0,86,0.00,,,0.14,Wunderground v.1.15,2013-05-01 12:12:00,
2013-05-01 06:16:00,36.5,32.7,29.98,ESE,121,2.0,5.0,86,0.00,,,0.14,Wunderground v.1.15,2013-05-01 12:16:00,
2013-05-01 06:18:00,36.6,32.8,29.98,ESE,121,2.0,5.0,86,0.00,,,0.14,Wunderground v.1.15,2013-05-01 12:18:00,
2013-05-01 06:20:00,36.6,32.8,29.98,ESE,121,2.0,2.0,86,0.00,,,0.14,Wunderground v.1.15,2013-05-01 12:20:00,
2013-05-01 06:24:00,36.9,33.1,29.98,ESE,121,1.0,3.0,86,0.00,,,0.14,Wunderground v.1.15,2013-05-01 12:24:00,
2013-05-01 06:26:00,36.9,33.1,29.98,SE,133,1.0,3.0,86,0.00,,,0.14,Wunderground v.1.15,2013-05-01 12:26:00,
2013-05-01 06:28:00,36.9,33.1,29.98,SSE,153,1.0,3.0,86,0.00,,,0.14,Wunderground v.1.15,2013-05-01 12:28:00,
2013-05-01 06:30:00,36.9,33.1,29.98,SSE,153,2.0,2.0,86,0.00,,,0.14,Wunderground v.1.15,2013-05-01 12:30:00,
2013-05-01 06:32:00,36.9,33.1,29.98,SSE,152,2.0,2.0,86,0.00,,,0.14,Wunderground v.1.15,2013-05-01 12:32:00,
2013-05-01 06:34:00,36.9,33.1,29.98,SSE,153,1.0,2.0,86,0.00,,,0.14,Wunderground v.1.15,2013-05-01 12:34:00,
2013-05-01 06:38:00,36.8,33.0,29.98,SSE,152,1.0,2.0,86,0.00,,,0.14,Wunderground v.1.15,2013-05-01 12:38:00,
2013-05-01 06:40:00,36.9,33.1,29.98,SSE,152,0.0,0.0,86,0.00,,,0.14,Wunderground v.1.15,2013-05-01 12:40:00,
2013-05-01 06:42:00,36.9,33.1,29.98,SSE,152,0.0,1.0,86,0.00,,,0.14,Wunderground v.1.15,2013-05-01 12:42:00,
2013-05-01 06:44:00,36.9,33.1,29.98,SSE,153,0.0,1.0,86,0.00,,,0.14,Wunderground v.1.15,2013-05-01 12:44:00,
2013-05-01 06:48:00,36.9,33.1,29.99,South,176,2.0,2.0,86,0.00,,,0.14,Wunderground v.1.15,2013-05-01 12:48:00,
2013-05-01 06:50:00,36.9,33.1,29.99,South,175,2.0,2.0,86,0.00,,,0.14,Wunderground v.1.15,2013-05-01 12:50:00,
2013-05-01 06:54:00,37.0,33.2,29.99,South,176,2.0,3.0,86,0.00,,,0.14,Wunderground v.1.15,2013-05-01 12:54:00,
2013-05-01 06:56:00,37.0,33.2,29.99,South,175,2.0,3.0,86,0.00,,,0.14,Wunderground v.1.15,2013-05-01 12:56:00,
2013-05-01 06:58:00,37.2,33.4,29.99,South,175,1.0,3.0,86,0.00,,,0.14,Wunderground v.1.15,2013-05-01 12:58:00,
2013-05-01 07:02:00,37.3,33.5,29.99,South,175,1.0,3.0,86,0.00,,,0.14,Wunderground v.1.15,2013-05-01 13:02:00,
2013-05-01 07:04:00,37.5,33.7,29.99,South,175,0.0,3.0,86,0.00,,,0.14,Wunderground v.1.15,2013-05-01 13:04:00,
2013-05-01 07:06:00,37.5,33.7,29.99,South,174,1.0,3.0,86,0.00,,,0.14,Wunderground v.1.15,2013-05-01 13:06:00,
2013-05-01 07:08:00,37.6,33.8,29.99,SSE,157,1.0,3.0,86,0.00,,,0.14,Wunderground v.1.15,2013-05-01 13:08:00,
2013-05-01 07:10:00,37.6,33.8,29.99,SE,134,2.0,2.0,86,0.00,,,0.14,Wunderground v.1.15,2013-05-01 13:10:00,
2013-05-01 07:12:00,37.8,34.0,29.99,SSE,151,2.0,2.0,86,0.00,,,0.14,Wunderground v.1.15,2013-05-01 13:12:00,
2013-05-01 07:14:00,37.9,34.1,29.99,South,175,2.0,4.0,86,0.00,,,0.14,Wunderground v.1.15,2013-05-01 13:14:00,
2013-05-01 07:18:00,37.9,34.1,30.00,SSE,161,2.0,5.0,86,0.00,,,0.14,Wunderground v.1.15,2013-05-01 13:18:00,
2013-05-01 07:20:00,38.0,34.2,30.00,SSE,163,2.0,2.0,86,0.00,,,0.14,Wunderground v.1.15,2013-05-01 13:20:00,
2013-05-01 07:24:00,38.0,34.2,30.00,SSE,165,2.0,3.0,86,0.00,,,0.14,Wunderground v.1.15,2013-05-01 13:24:00,
2013-05-01 07:26:00,38.0,34.2,30.00,SSE,165,2.0,3.0,86,0.00,,,0.14,Wunderground v.1.15,2013-05-01 13:26:00,
2013-05-01 07:28:00,38.2,34.4,30.00,SSE,165,2.0,3.0,86,0.00,,,0.14,Wunderground v.1.15,2013-05-01 13:28:00,
2013-05-01 07:30:00,38.2,34.4,30.00,SSE,165,2.0,2.0,86,0.00,,,0.14,Wunderground v.1.15,2013-05-01 13:30:00,
2013-05-01 07:32:00,38.3,34.5,30.00,SSE,165,1.0,2.0,86,0.00,,,0.14,Wunderground v.1.15,2013-05-01 13:32:00,
2013-05-01 07:34:00,38.3,34.5,30.00,SSE,165,1.0,2.0,86,0.00,,,0.14,Wunderground v.1.15,2013-05-01 13:34:00,
2013-05-01 07:38:00,38.5,34.4,30.00,SSE,165,1.0,2.0,85,0.00,,,0.14,Wunderground v.1.15,2013-05-01 13:38:00,
2013-05-01 07:40:00,38.6,34.5,30.00,SSE,165,1.0,1.0,85,0.00,,,0.14,Wunderground v.1.15,2013-05-01 13:40:00,
2013-05-01 07:44:00,38.8,34.7,30.00,SSE,165,0.0,2.0,85,0.00,,,0.14,Wunderground v.1.15,2013-05-01 13:44:00,
2013-05-01 07:46:00,38.9,34.8,29.99,SSE,165,1.0,4.0,85,0.00,,,0.14,Wunderground v.1.15,2013-05-01 13:46:00,
2013-05-01 07:50:00,39.2,35.1,29.99,SSE,165,1.0,3.0,85,0.00,,,0.14,Wunderground v.1.15,2013-05-01 13:50:00,
2013-05-01 07:52:00,39.3,34.9,29.99,SSE,165,2.0,3.0,84,0.00,,,0.14,Wunderground v.1.15,2013-05-01 13:52:00,
2013-05-01 07:54:00,39.5,35.1,29.99,SSE,165,2.0,3.0,84,0.00,,,0.14,Wunderground v.1.15,2013-05-01 13:54:00,
2013-05-01 07:56:00,39.6,35.2,29.99,SSE,165,2.0,4.0,84,0.00,,,0.14,Wunderground v.1.15,2013-05-01 13:56:00,
2013-05-01 07:58:00,39.6,34.9,29.99,SSE,165,2.0,4.0,83,0.00,,,0.14,Wunderground v.1.15,2013-05-01 13:58:00,
2013-05-01 08:02:00,40.1,35.7,29.99,SSE,165,2.0,2.0,84,0.00,,,0.14,Wunderground v.1.15,2013-05-01 14:02:00,
2013-05-01 08:04:00,40.2,35.8,29.99,SSE,165,1.0,2.0,84,0.00,,,0.14,Wunderground v.1.15,2013-05-01 14:04:00,
2013-05-01 08:10:00,40.5,35.7,29.99,SSE,165,1.0,1.0,83,0.00,,,0.14,Wunderground v.1.15,2013-05-01 14:10:00,
2013-05-01 08:14:00,40.6,35.5,29.99,SSE,165,1.0,2.0,82,0.00,,,0.14,Wunderground v.1.15,2013-05-01 14:14:00,
2013-05-01 08:16:00,40.6,35.2,30.01,SSE,165,1.0,2.0,81,0.00,,,0.14,Wunderground v.1.15,2013-05-01 14:16:00,
2013-05-01 08:18:00,40.6,35.2,30.01,SSE,165,1.0,2.0,81,0.00,,,0.14,Wunderground v.1.15,2013-05-01 14:18:00,
2013-05-01 08:20:00,40.8,35.4,30.01,SSE,165,1.0,2.0,81,0.00,,,0.14,Wunderground v.1.15,2013-05-01 14:20:00,
2013-05-01 08:22:00,40.8,35.1,30.01,SSE,165,1.0,5.0,80,0.00,,,0.14,Wunderground v.1.15,2013-05-01 14:22:00,
2013-05-01 08:26:00,41.1,34.8,30.01,SSE,161,1.0,5.0,78,0.00,,,0.14,Wunderground v.1.15,2013-05-01 14:26:00,
2013-05-01 08:28:00,41.2,34.9,30.01,South,177,1.0,5.0,78,0.00,,,0.14,Wunderground v.1.15,2013-05-01 14:28:00,
2013-05-01 08:30:00,41.3,34.6,30.01,ESE,121,2.0,4.0,77,0.00,,,0.14,Wunderground v.1.15,2013-05-01 14:30:00,
2013-05-01 08:32:00,41.5,34.8,30.01,SE,134,2.0,4.0,77,0.00,,,0.14,Wunderground v.1.15,2013-05-01 14:32:00,
2013-05-01 08:34:00,41.9,35.2,30.01,SE,134,2.0,4.0,77,0.00,,,0.14,Wunderground v.1.15,2013-05-01 14:34:00,
2013-05-01 08:36:00,42.3,35.6,30.01,SSE,159,2.0,4.0,77,0.00,,,0.14,Wunderground v.1.15,2013-05-01 14:36:00,
2013-05-01 08:38:00,42.5,34.8,30.01,South,180,2.0,10.0,74,0.00,,,0.14,Wunderground v.1.15,2013-05-01 14:38:00,
2013-05-01 08:44:00,43.1,33.6,30.01,SSE,161,3.0,3.0,69,0.00,,,0.14,Wunderground v.1.15,2013-05-01 14:44:00,
2013-05-01 08:46:00,43.3,32.7,30.02,SE,124,3.0,4.0,66,0.00,,,0.14,Wunderground v.1.15,2013-05-01 14:46:00,
2013-05-01 08:50:00,43.5,32.1,30.02,ESE,103,3.0,5.0,64,0.00,,,0.14,Wunderground v.1.15,2013-05-01 14:50:00,
2013-05-01 08:52:00,43.5,32.1,30.02,ESE,119,3.0,5.0,64,0.00,,,0.14,Wunderground v.1.15,2013-05-01 14:52:00,
2013-05-01 08:56:00,43.9,32.5,30.02,SSE,158,3.0,5.0,64,0.00,,,0.14,Wunderground v.1.15,2013-05-01 14:56:00,
2013-05-01 08:58:00,44.2,33.2,30.02,SSE,158,3.0,5.0,65,0.00,,,0.14,Wunderground v.1.15,2013-05-01 14:58:00,
2013-05-01 09:00:00,44.3,32.1,30.02,ESE,120,3.0,5.0,62,0.00,,,0.14,Wunderground v.1.15,2013-05-01 15:00:00,
2013-05-01 09:02:00,44.3,32.1,30.02,ESE,120,2.0,5.0,62,0.00,,,0.14,Wunderground v.1.15,2013-05-01 15:02:00,
2013-05-01 09:04:00,44.5,31.5,30.02,ESE,120,2.0,5.0,60,0.00,,,0.14,Wunderground v.1.15,2013-05-01 15:04:00,
2013-05-01 09:06:00,44.6,31.6,30.02,ESE,120,2.0,5.0,60,0.00,,,0.14,Wunderground v.1.15,2013-05-01 15:06:00,
2013-05-01 09:08:00,44.9,31.4,30.02,ESE,120,2.0,5.0,59,0.00,,,0.14,Wunderground v.1.15,2013-05-01 15:08:00,
2013-05-01 09:10:00,45.2,31.3,30.02,ESE,121,1.0,1.0,58,0.00,,,0.14,Wunderground v.1.15,2013-05-01 15:10:00,
2013-05-01 09:12:00,45.5,31.1,30.02,ESE,121,1.0,1.0,57,0.00,,,0.14,Wunderground v.1.15,2013-05-01 15:12:00,
2013-05-01 09:14:00,45.4,31.0,30.02,South,173,1.0,3.0,57,0.00,,,0.14,Wunderground v.1.15,2013-05-01 15:14:00,
2013-05-01 09:16:00,44.9,31.4,30.05,South,173,1.0,3.0,59,0.00,,,0.14,Wunderground v.1.15,2013-05-01 15:16:00,
2013-05-01 09:18:00,44.8,30.9,30.05,SSW,194,1.0,3.0,58,0.00,,,0.14,Wunderground v.1.15,2013-05-01 15:18:00,
2013-05-01 09:22:00,44.5,33.5,30.05,SSW,212,2.0,2.0,65,0.00,,,0.14,Wunderground v.1.15,2013-05-01 15:22:00,
2013-05-01 09:24:00,44.5,32.7,30.05,SSW,211,2.0,2.0,63,0.00,,,0.14,Wunderground v.1.15,2013-05-01 15:24:00,
2013-05-01 09:30:00,45.1,33.6,30.05,SSW,213,1.0,1.0,64,0.00,,,0.14,Wunderground v.1.15,2013-05-01 15:30:00,
2013-05-01 09:32:00,45.2,34.1,30.05,SW,228,1.0,3.0,65,0.00,,,0.14,Wunderground v.1.15,2013-05-01 15:32:00,
2013-05-01 09:36:00,45.1,34.0,30.05,SW,232,2.0,3.0,65,0.00,,,0.14,Wunderground v.1.15,2013-05-01 15:36:00,
2013-05-01 09:38:00,45.1,34.4,30.05,WNW,296,1.0,7.0,66,0.00,,,0.14,Wunderground v.1.15,2013-05-01 15:38:00,
2013-05-01 09:40:00,44.8,33.4,30.05,NNE,26,2.0,2.0,64,0.00,,,0.14,Wunderground v.1.15,2013-05-01 15:40:00,
2013-05-01 09:42:00,44.8,34.1,30.05,WNW,302,3.0,3.0,66,0.00,,,0.14,Wunderground v.1.15,2013-05-01 15:42:00,
2013-05-01 09:44:00,44.8,33.4,30.05,North,355,3.0,7.0,64,0.00,,,0.14,Wunderground v.1.15,2013-05-01 15:44:00,
2013-05-01 09:46:00,45.1,34.0,30.05,NNE,31,3.0,7.0,65,0.00,,,0.14,Wunderground v.1.15,2013-05-01 15:46:00,
2013-05-01 09:48:00,45.4,33.1,30.05,North,11,3.0,7.0,62,0.00,,,0.14,Wunderground v.1.15,2013-05-01 15:48:00,
2013-05-01 09:52:00,45.5,32.0,30.05,North,11,3.0,5.0,59,0.00,,,0.14,Wunderground v.1.15,2013-05-01 15:52:00,
2013-05-01 09:56:00,45.8,32.7,30.05,NNE,33,3.0,5.0,60,0.00,,,0.14,Wunderground v.1.15,2013-05-01 15:56:00,
2013-05-01 09:58:00,46.1,33.4,30.05,NNW,348,3.0,5.0,61,0.00,,,0.14,Wunderground v.1.15,2013-05-01 15:58:00,
2013-05-01 10:02:00,46.8,35.3,30.03,NW,311,2.0,5.0,64,0.00,,,0.14,Wunderground v.1.15,2013-05-01 16:02:00,
2013-05-01 10:06:00,46.4,35.3,30.03,NNW,341,3.0,5.0,65,0.00,,,0.14,Wunderground v.1.15,2013-05-01 16:06:00,
2013-05-01 10:08:00,46.2,34.7,30.03,NW,310,3.0,5.0,64,0.00,,,0.14,Wunderground v.1.15,2013-05-01 16:08:00,
2013-05-01 10:10:00,46.1,34.6,30.03,NW,306,4.0,4.0,64,0.00,,,0.14,Wunderground v.1.15,2013-05-01 16:10:00,
2013-05-01 10:14:00,45.5,34.0,30.03,NW,306,4.0,7.0,64,0.00,,,0.14,Wunderground v.1.15,2013-05-01 16:14:00,
2013-05-01 10:18:00,45.1,34.0,30.03,NW,307,4.0,7.0,65,0.00,,,0.14,Wunderground v.1.15,2013-05-01 16:18:00,
2013-05-01 10:20:00,44.9,34.2,30.03,NNW,329,4.0,4.0,66,0.00,,,0.14,Wunderground v.1.15,2013-05-01 16:20:00,
2013-05-01 10:24:00,44.9,33.8,30.03,NW,313,4.0,6.0,65,0.00,,,0.14,Wunderground v.1.15,2013-05-01 16:24:00,
2013-05-01 10:26:00,44.9,33.8,30.03,NNW,348,4.0,7.0,65,0.00,,,0.14,Wunderground v.1.15,2013-05-01 16:26:00,
2013-05-01 10:30:00,44.9,31.8,30.03,NW,318,5.0,5.0,60,0.00,,,0.14,Wunderground v.1.15,2013-05-01 16:30:00,
2013-05-01 10:32:00,44.9,31.4,30.04,NW,325,6.0,6.0,59,0.00,,,0.14,Wunderground v.1.15,2013-05-01 16:32:00,
2013-05-01 10:34:00,45.1,32.8,30.04,NNW,341,6.0,6.0,62,0.00,,,0.14,Wunderground v.1.15,2013-05-01 16:34:00,
2013-05-01 10:36:00,45.1,34.4,30.04,NNW,327,7.0,7.0,66,0.00,,,0.14,Wunderground v.1.15,2013-05-01 16:36:00,
2013-05-01 10:38:00,44.8,34.5,30.04,NNE,13,7.0,7.0,67,0.00,,,0.14,Wunderground v.1.15,2013-05-01 16:38:00,
2013-05-01 10:42:00,43.6,32.2,30.04,NNE,16,5.0,6.0,64,0.00,,,0.14,Wunderground v.1.15,2013-05-01 16:42:00,
2013-05-01 10:44:00,43.5,32.9,30.04,NNE,17,4.0,6.0,66,0.00,,,0.15,Wunderground v.1.15,2013-05-01 16:44:00,
2013-05-01 10:46:00,43.3,32.3,30.06,NW,314,3.0,6.0,65,0.00,,,0.15,Wunderground v.1.15,2013-05-01 16:46:00,
2013-05-01 10:48:00,43.3,33.4,30.06,NNE,19,3.0,6.0,68,0.00,,,0.15,Wunderground v.1.15,2013-05-01 16:48:00,
2013-05-01 10:50:00,43.3,33.1,30.06,NNW,342,2.0,5.0,67,0.00,,,0.15,Wunderground v.1.15,2013-05-01 16:50:00,
2013-05-01 10:56:00,44.3,36.2,30.06,NNW,345,3.0,5.0,73,0.00,,,0.15,Wunderground v.1.15,2013-05-01 16:56:00,
2013-05-01 10:58:00,44.6,35.8,30.06,NNW,333,3.0,5.0,71,0.00,,,0.15,Wunderground v.1.15,2013-05-01 16:58:00,
2013-05-01 11:04:00,44.6,33.2,30.04,NNW,340,4.0,12.0,64,0.00,,,0.16,Wunderground v.1.15,2013-05-01 17:04:00,
2013-05-01 11:06:00,44.5,32.7,30.04,North,351,4.0,12.0,63,0.00,,,0.16,Wunderground v.1.15,2013-05-01 17:06:00,
2013-05-01 11:08:00,44.6,32.4,30.04,North,350,4.0,12.0,62,0.00,,,0.16,Wunderground v.1.15,2013-05-01 17:08:00,
2013-05-01 11:10:00,44.6,31.1,30.04,NW,315,5.0,8.0,59,0.00,,,0.16,Wunderground v.1.15,2013-05-01 17:10:00,
2013-05-01 11:16:00,45.8,31.9,30.07,NNW,331,5.0,8.0,58,0.00,,,0.16,Wunderground v.1.15,2013-05-01 17:16:00,
2013-05-01 11:18:00,46.1,30.8,30.07,NNE,15,5.0,8.0,55,0.00,,,0.16,Wunderground v.1.15,2013-05-01 17:18:00,
2013-05-01 11:20:00,46.2,30.9,30.07,North,355,5.0,6.0,55,0.00,,,0.16,Wunderground v.1.15,2013-05-01 17:20:00,
2013-05-01 11:24:00,46.2,31.4,30.07,NNE,22,5.0,9.0,56,0.00,,,0.16,Wunderground v.1.15,2013-05-01 17:24:00,
2013-05-01 11:28:00,46.2,32.7,30.07,NE,35,4.0,9.0,59,0.00,,,0.16,Wunderground v.1.15,2013-05-01 17:28:00,
2013-05-01 11:34:00,46.4,30.2,30.07,NNE,15,2.0,3.0,53,0.00,,,0.16,Wunderground v.1.15,2013-05-01 17:34:00,
2013-05-01 11:36:00,46.4,28.8,30.07,North,350,3.0,13.0,50,0.00,,,0.16,Wunderground v.1.15,2013-05-01 17:36:00,
2013-05-01 11:42:00,46.4,25.1,30.07,NNW,331,5.0,5.0,43,0.00,,,0.16,Wunderground v.1.15,2013-05-01 17:42:00,
2013-05-01 11:46:00,46.7,25.4,30.08,West,281,5.0,5.0,43,0.00,,,0.16,Wunderground v.1.15,2013-05-01 17:46:00,
2013-05-01 11:50:00,47.3,25.3,30.08,NNE,13,4.0,5.0,42,0.00,,,0.16,Wunderground v.1.15,2013-05-01 17:50:00,
2013-05-01 11:52:00,47.4,24.9,30.08,North,355,4.0,4.0,41,0.00,,,0.16,Wunderground v.1.15,2013-05-01 17:52:00,
2013-05-01 11:54:00,47.6,25.0,30.08,NW,309,4.0,4.0,41,0.00,,,0.16,Wunderground v.1.15,2013-05-01 17:54:00,
2013-05-01 11:56:00,47.9,24.7,30.08,NNW,327,4.0,4.0,40,0.00,,,0.16,Wunderground v.1.15,2013-05-01 17:56:00,
2013-05-01 12:00:00,48.5,21.4,30.08,WNW,297,4.0,5.0,34,0.00,,,0.16,Wunderground v.1.15,2013-05-01 18:00:00,
2013-05-01 12:02:00,48.5,22.1,30.07,WSW,249,4.0,5.0,35,0.00,,,0.16,Wunderground v.1.15,2013-05-01 18:02:00,
2013-05-01 12:06:00,49.4,22.2,30.07,SW,221,4.0,5.0,34,0.00,,,0.16,Wunderground v.1.15,2013-05-01 18:06:00,
2013-05-01 12:10:00,49.9,22.6,30.07,NNE,24,4.0,4.0,34,0.00,,,0.16,Wunderground v.1.15,2013-05-01 18:10:00,
2013-05-01 12:12:00,50.1,22.1,30.07,NE,34,3.0,4.0,33,0.00,,,0.16,Wunderground v.1.15,2013-05-01 18:12:00,
2013-05-01 12:14:00,50.2,20.7,30.07,NNW,331,3.0,6.0,31,0.00,,,0.16,Wunderground v.1.15,2013-05-01 18:14:00,
2013-05-01 12:16:00,50.4,19.3,30.10,NNW,338,4.0,8.0,29,0.00,,,0.16,Wunderground v.1.15,2013-05-01 18:16:00,
2013-05-01 12:18:00,50.1,18.2,30.10,NW,312,4.0,8.0,28,0.00,,,0.16,Wunderground v.1.15,2013-05-01 18:18:00,
2013-05-01 12:20:00,49.8,20.3,30.10,North,9,4.0,4.0,31,0.00,,,0.16,Wunderground v.1.15,2013-05-01 18:20:00,
2013-05-01 12:22:00,49.9,22.6,30.10,NNE,15,5.0,5.0,34,0.00,,,0.16,Wunderground v.1.15,2013-05-01 18:22:00,
2013-05-01 12:28:00,49.9,19.7,30.10,NW,317,5.0,10.0,30,0.00,,,0.16,Wunderground v.1.15,2013-05-01 18:28:00,
2013-05-01 12:30:00,49.5,18.5,30.10,NW,313,6.0,6.0,29,0.00,,,0.16,Wunderground v.1.15,2013-05-01 18:30:00,
2013-05-01 12:32:00,49.4,20.0,30.10,NW,313,6.0,6.0,31,0.00,,,0.16,Wunderground v.1.15,2013-05-01 18:32:00,
2013-05-01 12:34:00,49.6,20.9,30.10,WNW,282,6.0,6.0,32,0.00,,,0.16,Wunderground v.1.15,2013-05-01 18:34:00,
2013-05-01 12:38:00,50.4,18.5,30.10,North,32767,5.0,6.0,28,0.00,,,0.16,Wunderground v.1.15,2013-05-01 18:38:00,
2013-05-01 12:40:00,50.7,18.7,30.10,NW,311,4.0,4.0,28,0.00,,,0.16,Wunderground v.1.15,2013-05-01 18:40:00,
2013-05-01 12:42:00,50.8,17.1,30.10,NNE,26,4.0,4.0,26,0.00,,,0.16,Wunderground v.1.15,2013-05-01 18:42:00,
2013-05-01 12:44:00,51.1,17.4,30.10,NW,323,5.0,5.0,26,0.00,,,0.16,Wunderground v.1.15,2013-05-01 18:44:00,
2013-05-01 12:48:00,51.3,17.5,30.10,NNE,13,5.0,5.0,26,0.00,,,0.16,Wunderground v.1.15,2013-05-01 18:48:00,
2013-05-01 12:50:00,51.4,17.6,30.10,North,32767,4.0,4.0,26,0.00,,,0.16,Wunderground v.1.15,2013-05-01 18:50:00,
2013-05-01 12:56:00,50.8,15.2,30.10,NW,314,7.0,11.0,24,0.00,,,0.16,Wunderground v.1.15,2013-05-01 18:56:00,
2013-05-01 12:58:00,51.0,15.4,30.10,NNE,27,7.0,11.0,24,0.00,,,0.16,Wunderground v.1.15,2013-05-01 18:58:00,
2013-05-01 13:04:00,51.0,17.3,30.09,NW,309,6.0,12.0,26,0.00,,,0.16,Wunderground v.1.15,2013-05-01 19:04:00,
2013-05-01 13:08:00,50.8,16.2,30.09,NW,322,7.0,12.0,25,0.00,,,0.16,Wunderground v.1.15,2013-05-01 19:08:00,
2013-05-01 13:12:00,51.4,18.5,30.09,NNW,340,7.0,7.0,27,0.00,,,0.16,Wunderground v.1.15,2013-05-01 19:12:00,
2013-05-01 13:14:00,51.7,17.0,30.09,NNW,343,7.0,7.0,25,0.00,,,0.16,Wunderground v.1.15,2013-05-01 19:14:00,
2013-05-01 13:16:00,52.0,17.2,30.10,NNW,327,6.0,8.0,25,0.00,,,0.16,Wunderground v.1.15,2013-05-01 19:16:00,
2013-05-01 13:18:00,51.9,15.2,30.10,North,5,6.0,8.0,23,0.00,,,0.16,Wunderground v.1.15,2013-05-01 19:18:00,
2013-05-01 13:22:00,51.7,15.0,30.10,North,5,6.0,6.0,23,0.00,,,0.16,Wunderground v.1.15,2013-05-01 19:22:00,
2013-05-01 13:26:00,51.4,15.8,30.10,NW,317,6.0,6.0,24,0.00,,,0.16,Wunderground v.1.15,2013-05-01 19:26:00,
2013-05-01 13:28:00,51.6,16.9,30.10,NW,315,5.0,6.0,25,0.00,,,0.16,Wunderground v.1.15,2013-05-01 19:28:00,
2013-05-01 13:32:00,52.0,18.1,30.11,North,5,5.0,5.0,26,0.00,,,0.16,Wunderground v.1.15,2013-05-01 19:32:00,
2013-05-01 13:34:00,52.2,18.3,30.11,NW,304,5.0,6.0,26,0.00,,,0.16,Wunderground v.1.15,2013-05-01 19:34:00,
2013-05-01 13:36:00,52.5,17.6,30.11,NNW,327,5.0,6.0,25,0.00,,,0.16,Wunderground v.1.15,2013-05-01 19:36:00,
2013-05-01 13:42:00,52.9,17.0,30.11,NW,310,6.0,6.0,24,0.00,,,0.16,Wunderground v.1.15,2013-05-01 19:42:00,
2013-05-01 13:44:00,52.6,15.8,30.11,WNW,297,7.0,7.0,23,0.00,,,0.16,Wunderground v.1.15,2013-05-01 19:44:00,
2013-05-01 13:48:00,52.0,16.3,30.11,NW,318,8.0,8.0,24,0.00,,,0.16,Wunderground v.1.15,2013-05-01 19:48:00,
2013-05-01 13:50:00,51.7,17.9,30.11,NW,321,8.0,12.0,26,0.00,,,0.16,Wunderground v.1.15,2013-05-01 19:50:00,
2013-05-01 13:56:00,51.6,18.7,30.11,NNE,28,9.0,15.0,27,0.00,,,0.16,Wunderground v.1.15,2013-05-01 19:56:00,
2013-05-01 13:58:00,52.0,18.1,30.11,NNW,345,10.0,15.0,26,0.00,,,0.16,Wunderground v.1.15,2013-05-01 19:58:00,
2013-05-01 14:04:00,52.0,18.1,30.11,West,280,9.0,15.0,26,0.00,,,0.16,Wunderground v.1.15,2013-05-01 20:04:00,
2013-05-01 14:08:00,51.7,19.6,30.11,NW,321,10.0,15.0,28,0.00,,,0.16,Wunderground v.1.15,2013-05-01 20:08:00,
2013-05-01 14:10:00,51.7,18.7,30.11,NNW,331,10.0,21.0,27,0.00,,,0.16,Wunderground v.1.15,2013-05-01 20:10:00,
2013-05-01 14:14:00,51.0,19.0,30.11,NW,306,11.0,21.0,28,0.00,,,0.16,Wunderground v.1.15,2013-05-01 20:14:00,
2013-05-01 14:18:00,51.3,18.4,30.14,North,355,11.0,21.0,27,0.00,,,0.16,Wunderground v.1.15,2013-05-01 20:18:00,
2013-05-01 14:22:00,51.3,18.4,30.14,NNW,329,10.0,16.0,27,0.00,,,0.16,Wunderground v.1.15,2013-05-01 20:22:00,
2013-05-01 14:28:00,51.3,19.3,30.14,NNW,342,11.0,20.0,28,0.00,,,0.16,Wunderground v.1.15,2013-05-01 20:28:00,
2013-05-01 14:30:00,51.4,18.5,30.14,NW,314,11.0,11.0,27,0.00,,,0.16,Wunderground v.1.15,2013-05-01 20:30:00,
2013-05-01 14:32:00,51.7,19.6,30.13,North,351,10.0,11.0,28,0.00,,,0.16,Wunderground v.1.15,2013-05-01 20:32:00,
2013-05-01 14:34:00,51.7,18.7,30.13,NNW,334,9.0,15.0,27,0.00,,,0.16,Wunderground v.1.15,2013-05-01 20:34:00,
2013-05-01 14:38:00,51.6,18.7,30.13,North,32767,9.0,15.0,27,0.00,,,0.16,Wunderground v.1.15,2013-05-01 20:38:00,
2013-05-01 14:40:00,51.9,18.0,30.13,NNW,329,8.0,8.0,26,0.00,,,0.16,Wunderground v.1.15,2013-05-01 20:40:00,
2013-05-01 14:42:00,52.0,17.2,30.13,NNW,343,8.0,12.0,25,0.00,,,0.16,Wunderground v.1.15,2013-05-01 20:42:00,
2013-05-01 14:44:00,52.2,19.2,30.13,North,32767,8.0,12.0,27,0.00,,,0.16,Wunderground v.1.15,2013-05-01 20:44:00,
2013-05-01 14:46:00,52.3,17.5,30.13,NW,321,8.0,12.0,25,0.00,,,0.16,Wunderground v.1.15,2013-05-01 20:46:00,
2013-05-01 14:48:00,52.2,16.4,30.13,North,355,8.0,12.0,24,0.00,,,0.16,Wunderground v.1.15,2013-05-01 20:48:00,
2013-05-01 14:50:00,52.0,17.2,30.13,NNW,338,10.0,13.0,25,0.00,,,0.16,Wunderground v.1.15,2013-05-01 20:50:00,
2013-05-01 14:52:00,52.0,17.2,30.13,NNE,15,9.0,13.0,25,0.00,,,0.16,Wunderground v.1.15,2013-05-01 20:52:00,
2013-05-01 14:54:00,52.3,16.5,30.13,NW,324,9.0,13.0,24,0.00,,,0.16,Wunderground v.1.15,2013-05-01 20:54:00,
2013-05-01 14:56:00,52.5,17.6,30.13,SW,219,9.0,13.0,25,0.00,,,0.16,Wunderground v.1.15,2013-05-01 20:56:00,
2013-05-01 15:02:00,53.1,15.2,30.14,NW,318,6.0,13.0,22,0.00,,,0.16,Wunderground v.1.15,2013-05-01 21:02:00,
2013-05-01 15:06:00,52.5,14.7,30.14,NW,319,7.0,13.0,22,0.00,,,0.16,Wunderground v.1.15,2013-05-01 21:06:00,
2013-05-01 15:10:00,52.0,16.3,30.14,West,272,8.0,9.0,24,0.00,,,0.16,Wunderground v.1.15,2013-05-01 21:10:00,
2013-05-01 15:12:00,52.5,15.7,30.14,North,355,8.0,15.0,23,0.00,,,0.16,Wunderground v.1.15,2013-05-01 21:12:00,
2013-05-01 15:14:00,52.9,14.0,30.14,WNW,286,8.0,15.0,21,0.00,,,0.16,Wunderground v.1.15,2013-05-01 21:14:00,
2013-05-01 15:18:00,53.2,11.9,30.17,NW,309,8.0,15.0,19,0.00,,,0.16,Wunderground v.1.15,2013-05-01 21:18:00,
2013-05-01 15:20:00,52.9,12.9,30.17,NNW,331,9.0,12.0,20,0.00,,,0.16,Wunderground v.1.15,2013-05-01 21:20:00,
2013-05-01 15:24:00,53.1,13.0,30.17,North,9,9.0,12.0,20,0.00,,,0.16,Wunderground v.1.15,2013-05-01 21:24:00,
2013-05-01 15:26:00,52.8,11.6,30.17,North,351,10.0,12.0,19,0.00,,,0.16,Wunderground v.1.15,2013-05-01 21:26:00,
2013-05-01 15:28:00,52.6,12.6,30.17,WNW,285,9.0,12.0,20,0.00,,,0.16,Wunderground v.1.15,2013-05-01 21:28:00,
2013-05-01 15:30:00,52.6,12.6,30.17,North,355,9.0,9.0,20,0.00,,,0.16,Wunderground v.1.15,2013-05-01 21:30:00,
2013-05-01 15:32:00,52.8,12.8,30.17,North,355,10.0,13.0,20,0.00,,,0.16,Wunderground v.1.15,2013-05-01 21:32:00,
2013-05-01 15:36:00,52.6,11.4,30.17,WNW,296,9.0,13.0,19,0.00,,,0.16,Wunderground v.1.15,2013-05-01 21:36:00,
2013-05-01 15:40:00,53.5,9.7,30.17,WNW,303,9.0,9.0,17,0.00,,,0.16,Wunderground v.1.15,2013-05-01 21:40:00,
2013-05-01 15:42:00,53.2,9.4,30.17,NW,321,9.0,11.0,17,0.00,,,0.16,Wunderground v.1.15,2013-05-01 21:42:00,
2013-05-01 15:46:00,52.9,10.5,30.17,WNW,296,9.0,18.0,18,0.00,,,0.16,Wunderground v.1.15,2013-05-01 21:46:00,
2013-05-01 15:48:00,52.9,11.7,30.17,WNW,290,10.0,18.0,19,0.00,,,0.16,Wunderground v.1.15,2013-05-01 21:48:00,
2013-05-01 15:50:00,52.9,11.7,30.17,WNW,292,9.0,9.0,19,0.00,,,0.16,Wunderground v.1.15,2013-05-01 21:50:00,
2013-05-01 15:52:00,52.8,10.4,30.17,NNW,335,8.0,9.0,18,0.00,,,0.16,Wunderground v.1.15,2013-05-01 21:52:00,
2013-05-01 15:56:00,52.5,8.9,30.17,NW,319,9.0,17.0,17,0.00,,,0.16,Wunderground v.1.15,2013-05-01 21:56:00,
2013-05-01 15:58:00,52.0,8.5,30.17,NW,320,10.0,17.0,17,0.00,,,0.16,Wunderground v.1.15,2013-05-01 21:58:00,
2013-05-01 16:02:00,51.7,9.5,30.17,NW,317,11.0,11.0,18,0.00,,,0.16,Wunderground v.1.15,2013-05-01 22:02:00,
2013-05-01 16:04:00,51.9,9.6,30.17,NW,315,10.0,16.0,18,0.00,,,0.16,Wunderground v.1.15,2013-05-01 22:04:00,
2013-05-01 16:08:00,51.7,9.5,30.17,NNW,331,9.0,16.0,18,0.00,,,0.16,Wunderground v.1.15,2013-05-01 22:08:00,
2013-05-01 16:10:00,51.6,8.1,30.17,NW,316,9.0,9.0,17,0.00,,,0.16,Wunderground v.1.15,2013-05-01 22:10:00,
2013-05-01 16:12:00,51.6,10.6,30.17,NNW,327,10.0,11.0,19,0.00,,,0.16,Wunderground v.1.15,2013-05-01 22:12:00,
2013-05-01 16:14:00,51.7,8.2,30.17,NNW,344,10.0,11.0,17,0.00,,,0.16,Wunderground v.1.15,2013-05-01 22:14:00,
2013-05-01 16:18:00,52.2,7.3,30.19,NW,325,9.0,12.0,16,0.00,,,0.16,Wunderground v.1.15,2013-05-01 22:18:00,
2013-05-01 16:22:00,51.9,8.4,30.19,NNW,331,9.0,15.0,17,0.00,,,0.16,Wunderground v.1.15,2013-05-01 22:22:00,
2013-05-01 16:24:00,51.9,8.4,30.19,WNW,300,9.0,15.0,17,0.00,,,0.16,Wunderground v.1.15,2013-05-01 22:24:00,
2013-05-01 16:30:00,52.0,5.7,30.20,NW,326,9.0,9.0,15,0.00,,,0.16,Wunderground v.1.15,2013-05-01 22:30:00,
2013-05-01 16:34:00,52.2,7.3,30.20,NW,326,9.0,17.0,16,0.00,,,0.16,Wunderground v.1.15,2013-05-01 22:34:00,
2013-05-01 16:36:00,52.5,6.1,30.20,NNE,24,10.0,17.0,15,0.00,,,0.16,Wunderground v.1.15,2013-05-01 22:36:00,
2013-05-01 16:40:00,52.9,4.9,30.20,NW,325,9.0,9.0,14,0.00,,,0.16,Wunderground v.1.15,2013-05-01 22:40:00,
2013-05-01 16:46:00,53.2,5.1,30.19,NW,304,9.0,15.0,14,0.00,,,0.16,Wunderground v.1.15,2013-05-01 22:46:00,
2013-05-01 16:48:00,53.3,5.2,30.19,NW,313,9.0,20.0,14,0.00,,,0.16,Wunderground v.1.15,2013-05-01 22:48:00,
2013-05-01 16:52:00,53.5,3.8,30.19,North,355,10.0,10.0,13,0.00,,,0.16,Wunderground v.1.15,2013-05-01 22:52:00,
2013-05-01 16:54:00,53.8,5.6,30.19,NNW,337,9.0,10.0,14,0.00,,,0.16,Wunderground v.1.15,2013-05-01 22:54:00,
2013-05-01 16:56:00,53.9,2.4,30.19,NW,325,9.0,10.0,12,0.00,,,0.16,Wunderground v.1.15,2013-05-01 22:56:00,
2013-05-01 16:58:00,53.8,2.3,30.19,NW,307,9.0,10.0,12,0.00,,,0.16,Wunderground v.1.15,2013-05-01 22:58:00,
2013-05-01 17:02:00,53.9,2.4,30.20,North,355,9.0,17.0,12,0.00,,,0.16,Wunderground v.1.15,2013-05-01 23:02:00,
2013-05-01 17:04:00,53.8,4.0,30.20,North,5,10.0,17.0,13,0.00,,,0.16,Wunderground v.1.15,2013-05-01 23:04:00,
2013-05-01 17:06:00,53.9,4.1,30.20,NNW,342,10.0,17.0,13,0.00,,,0.16,Wunderground v.1.15,2013-05-01 23:06:00,
2013-05-01 17:10:00,53.5,5.4,30.20,NW,322,11.0,18.0,14,0.00,,,0.16,Wunderground v.1.15,2013-05-01 23:10:00,
2013-05-01 17:14:00,53.1,1.7,30.20,NNW,342,12.0,18.0,12,0.00,,,0.16,Wunderground v.1.15,2013-05-01 23:14:00,
2013-05-01 17:16:00,53.1,1.7,30.23,NNW,342,11.0,18.0,12,0.00,,,0.16,Wunderground v.1.15,2013-05-01 23:16:00,
2013-05-01 17:18:00,53.3,1.9,30.23,North,355,10.0,18.0,12,0.00,,,0.16,Wunderground v.1.15,2013-05-01 23:18:00,
2013-05-01 17:22:00,53.3,0.0,30.23,NNW,344,9.0,14.0,11,0.00,,,0.16,Wunderground v.1.15,2013-05-01 23:22:00,
2013-05-01 17:24:00,53.2,1.8,30.23,NW,315,8.0,14.0,12,0.00,,,0.16,Wunderground v.1.15,2013-05-01 23:24:00,
2013-05-01 17:28:00,53.2,3.5,30.23,NW,322,8.0,14.0,13,0.00,,,0.16,Wunderground v.1.15,2013-05-01 23:28:00,
2013-05-01 17:30:00,53.1,1.7,30.24,NW,323,8.0,12.0,12,0.00,,,0.16,Wunderground v.1.15,2013-05-01 23:30:00,
2013-05-01 17:32:00,53.1,1.7,30.24,WNW,297,8.0,12.0,12,0.00,,,0.16,Wunderground v.1.15,2013-05-01 23:32:00,
2013-05-01 17:34:00,53.1,1.7,30.24,NW,325,8.0,12.0,12,0.00,,,0.16,Wunderground v.1.15,2013-05-01 23:34:00,
2013-05-01 17:36:00,53.1,1.7,30.24,NNW,347,9.0,14.0,12,0.00,,,0.16,Wunderground v.1.15,2013-05-01 23:36:00,
2013-05-01 17:38:00,53.2,3.5,30.24,NW,318,9.0,14.0,13,0.00,,,0.16,Wunderground v.1.15,2013-05-01 23:38:00,
2013-05-01 17:44:00,53.2,3.5,30.24,NNW,343,9.0,12.0,13,0.00,,,0.16,Wunderground v.1.15,2013-05-01 23:44:00,
2013-05-01 17:48:00,52.8,3.2,30.24,North,9,10.0,12.0,13,0.00,,,0.16,Wunderground v.1.15,2013-05-01 23:48:00,
2013-05-01 17:50:00,52.8,4.8,30.24,NW,326,10.0,17.0,14,0.00,,,0.16,Wunderground v.1.15,2013-05-01 23:50:00,
2013-05-01 17:52:00,52.9,3.3,30.24,NNW,344,10.0,17.0,13,0.00,,,0.16,Wunderground v.1.15,2013-05-01 23:52:00,
2013-05-01 17:56:00,53.1,5.1,30.24,NW,324,9.0,17.0,14,0.00,,,0.16,Wunderground v.1.15,2013-05-01 23:56:00,
2013-05-01 17:58:00,53.2,3.5,30.24,WNW,297,9.0,17.0,13,0.00,,,0.16,Wunderground v.1.15,2013-05-01 23:58:00,
2013-05-01 18:00:00,52.9,3.3,30.24,NW,313,9.0,16.0,13,0.00,,,0.16,Wunderground v.1.15,2013-05-02 00:00:00,
2013-05-01 18:02:00,52.8,4.8,30.25,North,5,9.0,16.0,14,0.00,,,0.16,Wunderground v.1.15,2013-05-02 00:02:00,
2013-05-01 18:06:00,52.3,2.8,30.25,WNW,298,9.0,16.0,13,0.00,,,0.16,Wunderground v.1.15,2013-05-02 00:06:00,
2013-05-01 18:08:00,52.3,4.4,30.25,NNW,339,10.0,16.0,14,0.00,,,0.16,Wunderground v.1.15,2013-05-02 00:08:00,
2013-05-01 18:12:00,52.0,4.2,30.25,NW,319,10.0,10.0,14,0.00,,,0.16,Wunderground v.1.15,2013-05-02 00:12:00,
2013-05-01 18:14:00,52.0,5.7,30.25,NE,34,9.0,10.0,15,0.00,,,0.16,Wunderground v.1.15,2013-05-02 00:14:00,
2013-05-01 18:18:00,52.2,5.9,30.27,NW,326,8.0,10.0,15,0.00,,,0.16,Wunderground v.1.15,2013-05-02 00:18:00,
2013-05-01 18:20:00,52.2,5.9,30.27,NNW,338,7.0,7.0,15,0.00,,,0.16,Wunderground v.1.15,2013-05-02 00:20:00,
2013-05-01 18:22:00,52.0,4.2,30.27,NNW,345,7.0,11.0,14,0.00,,,0.16,Wunderground v.1.15,2013-05-02 00:22:00,
2013-05-01 18:24:00,51.9,4.1,30.27,NNW,340,8.0,11.0,14,0.00,,,0.16,Wunderground v.1.15,2013-05-02 00:24:00,
2013-05-01 18:28:00,51.7,3.9,30.27,NW,310,9.0,14.0,14,0.00,,,0.16,Wunderground v.1.15,2013-05-02 00:28:00,
2013-05-01 18:30:00,51.7,3.9,30.27,NNW,345,10.0,10.0,14,0.00,,,0.16,Wunderground v.1.15,2013-05-02 00:30:00,
2013-05-01 18:32:00,51.7,5.4,30.27,NNW,335,10.0,10.0,15,0.00,,,0.16,Wunderground v.1.15,2013-05-02 00:32:00,
2013-05-01 18:34:00,51.6,5.4,30.27,NNW,329,10.0,10.0,15,0.00,,,0.16,Wunderground v.1.15,2013-05-02 00:34:00,
2013-05-01 18:36:00,51.4,5.2,30.27,NW,315,11.0,11.0,15,0.00,,,0.16,Wunderground v.1.15,2013-05-02 00:36:00,
2013-05-01 18:38:00,51.4,5.2,30.27,North,355,10.0,11.0,15,0.00,,,0.16,Wunderground v.1.15,2013-05-02 00:38:00,
2013-05-01 18:40:00,51.4,5.2,30.27,NW,308,10.0,10.0,15,0.00,,,0.16,Wunderground v.1.15,2013-05-02 00:40:00,
2013-05-01 18:42:00,51.4,6.6,30.27,NNW,336,10.0,10.0,16,0.00,,,0.16,Wunderground v.1.15,2013-05-02 00:42:00,
2013-05-01 18:46:00,51.3,7.9,30.27,WNW,297,8.0,10.0,17,0.00,,,0.16,Wunderground v.1.15,2013-05-02 00:46:00,
2013-05-01 18:48:00,51.3,7.9,30.27,NW,317,8.0,10.0,17,0.00,,,0.16,Wunderground v.1.15,2013-05-02 00:48:00,
2013-05-01 18:52:00,51.1,6.4,30.27,North,32767,8.0,8.0,16,0.00,,,0.16,Wunderground v.1.15,2013-05-02 00:52:00,
2013-05-01 18:54:00,50.8,4.7,30.27,NW,317,8.0,12.0,15,0.00,,,0.16,Wunderground v.1.15,2013-05-02 00:54:00,
2013-05-01 18:56:00,50.7,6.1,30.27,NNW,339,9.0,13.0,16,0.00,,,0.16,Wunderground v.1.15,2013-05-02 00:56:00,
2013-05-01 19:00:00,50.5,5.9,30.27,NW,318,9.0,9.0,16,0.00,,,0.16,Wunderground v.1.15,2013-05-02 01:00:00,
2013-05-01 19:02:00,50.5,4.5,30.28,NNW,327,8.0,16.0,15,0.00,,,0.16,Wunderground v.1.15,2013-05-02 01:02:00,
2013-05-01 19:04:00,50.4,4.4,30.28,NNW,344,8.0,16.0,15,0.00,,,0.16,Wunderground v.1.15,2013-05-02 01:04:00,
2013-05-01 19:06:00,50.4,5.8,30.28,NNE,16,7.0,16.0,16,0.00,,,0.16,Wunderground v.1.15,2013-05-02 01:06:00,
2013-05-01 19:10:00,50.2,9.5,30.28,NW,324,7.0,12.0,19,0.00,,,0.16,Wunderground v.1.15,2013-05-02 01:10:00,
2013-05-01 19:12:00,50.1,9.4,30.28,NNW,329,7.0,12.0,19,0.00,,,0.16,Wunderground v.1.15,2013-05-02 01:12:00,
2013-05-01 19:14:00,49.9,9.2,30.28,NNW,336,6.0,12.0,19,0.00,,,0.16,Wunderground v.1.15,2013-05-02 01:14:00,
2013-05-01 19:16:00,49.8,9.1,30.28,NW,308,7.0,12.0,19,0.00,,,0.16,Wunderground v.1.15,2013-05-02 01:16:00,
2013-05-01 19:18:00,49.8,7.9,30.28,North,5,6.0,12.0,18,0.00,,,0.16,Wunderground v.1.15,2013-05-02 01:18:00,
2013-05-01 19:22:00,49.5,6.4,30.28,NNW,335,6.0,10.0,17,0.00,,,0.16,Wunderground v.1.15,2013-05-02 01:22:00,
2013-05-01 19:26:00,49.4,8.8,30.28,North,5,6.0,10.0,19,0.00,,,0.16,Wunderground v.1.15,2013-05-02 01:26:00,
2013-05-01 19:28:00,49.4,8.8,30.28,North,5,6.0,10.0,19,0.00,,,0.16,Wunderground v.1.15,2013-05-02 01:28:00,
2013-05-01 19:32:00,48.9,9.5,30.30,NNW,340,6.0,10.0,20,0.00,,,0.16,Wunderground v.1.15,2013-05-02 01:32:00,
2013-05-01 19:34:00,48.8,10.5,30.30,North,32767,7.0,10.0,21,0.00,,,0.16,Wunderground v.1.15,2013-05-02 01:34:00,
2013-05-01 19:38:00,48.6,10.4,30.30,NNW,341,7.0,10.0,21,0.00,,,0.16,Wunderground v.1.15,2013-05-02 01:38:00,
2013-05-01 19:40:00,48.5,11.3,30.30,North,355,6.0,6.0,22,0.00,,,0.16,Wunderground v.1.15,2013-05-02 01:40:00,
2013-05-01 19:42:00,48.3,11.2,30.30,NNE,17,6.0,6.0,22,0.00,,,0.16,Wunderground v.1.15,2013-05-02 01:42:00,
2013-05-01 19:46:00,48.2,11.1,30.31,North,355,4.0,6.0,22,0.00,,,0.16,Wunderground v.1.15,2013-05-02 01:46:00,
2013-05-01 19:48:00,48.0,10.9,30.31,NNE,17,3.0,6.0,22,0.00,,,0.16,Wunderground v.1.15,2013-05-02 01:48:00,
2013-05-01 19:52:00,47.6,11.6,30.31,North,11,4.0,10.0,23,0.00,,,0.16,Wunderground v.1.15,2013-05-02 01:52:00,
2013-05-01 19:56:00,47.3,11.3,30.31,NNE,24,5.0,10.0,23,0.00,,,0.16,Wunderground v.1.15,2013-05-02 01:56:00,
2013-05-01 19:58:00,47.1,11.1,30.31,North,5,5.0,10.0,23,0.00,,,0.16,Wunderground v.1.15,2013-05-02 01:58:00,
2013-05-01 20:04:00,46.8,11.8,30.33,North,351,5.0,5.0,24,0.00,,,0.16,Wunderground v.1.15,2013-05-02 02:04:00,
2013-05-01 20:06:00,46.7,11.8,30.33,North,10,5.0,6.0,24,0.00,,,0.16,Wunderground v.1.15,2013-05-02 02:06:00,
2013-05-01 20:10:00,46.5,10.6,30.33,North,32767,4.0,6.0,23,0.00,,,0.16,Wunderground v.1.15,2013-05-02 02:10:00,
2013-05-01 20:12:00,46.5,10.6,30.33,North,32767,4.0,4.0,23,0.00,,,0.16,Wunderground v.1.15,2013-05-02 02:12:00,
2013-05-01 20:14:00,46.4,10.5,30.33,NNW,336,4.0,8.0,23,0.00,,,0.16,Wunderground v.1.15,2013-05-02 02:14:00,
2013-05-01 20:16:00,46.4,10.5,30.32,North,349,4.0,8.0,23,0.00,,,0.16,Wunderground v.1.15,2013-05-02 02:16:00,
2013-05-01 20:20:00,46.4,10.5,30.32,NE,45,4.0,8.0,23,0.00,,,0.16,Wunderground v.1.15,2013-05-02 02:20:00,
2013-05-01 20:22:00,46.4,9.6,30.32,North,32767,4.0,4.0,22,0.00,,,0.16,Wunderground v.1.15,2013-05-02 02:22:00,
2013-05-01 20:24:00,46.4,10.5,30.32,NNW,340,4.0,4.0,23,0.00,,,0.16,Wunderground v.1.15,2013-05-02 02:24:00,
2013-05-01 20:26:00,46.2,10.4,30.32,NNW,340,4.0,4.0,23,0.00,,,0.16,Wunderground v.1.15,2013-05-02 02:26:00,
2013-05-01 20:32:00,46.0,12.1,30.33,North,355,1.0,1.0,25,0.00,,,0.16,Wunderground v.1.15,2013-05-02 02:32:00,
2013-05-01 20:34:00,45.8,11.9,30.33,NNW,334,1.0,1.0,25,0.00,,,0.16,Wunderground v.1.15,2013-05-02 02:34:00,
2013-05-01 20:36:00,45.7,11.8,30.33,NNW,335,1.0,4.0,25,0.00,,,0.16,Wunderground v.1.15,2013-05-02 02:36:00,
2013-05-01 20:38:00,45.5,11.7,30.33,NNW,336,2.0,4.0,25,0.00,,,0.16,Wunderground v.1.15,2013-05-02 02:38:00,
2013-05-01 20:40:00,45.4,11.6,30.33,NNW,330,2.0,4.0,25,0.00,,,0.16,Wunderground v.1.15,2013-05-02 02:40:00,
2013-05-01 20:42:00,45.2,11.4,30.33,NNW,333,2.0,3.0,25,0.00,,,0.16,Wunderground v.1.15,2013-05-02 02:42:00,
2013-05-01 20:46:00,44.9,12.0,30.35,NNW,327,2.0,3.0,26,0.00,,,0.16,Wunderground v.1.15,2013-05-02 02:46:00,
2013-05-01 20:48:00,44.8,12.8,30.35,North,350,2.0,3.0,27,0.00,,,0.16,Wunderground v.1.15,2013-05-02 02:48:00,
2013-05-01 20:50:00,44.6,12.6,30.35,NNW,333,2.0,3.0,27,0.00,,,0.16,Wunderground v.1.15,2013-05-02 02:50:00,
2013-05-01 20:52:00,44.5,12.5,30.35,NNW,342,2.0,3.0,27,0.00,,,0.16,Wunderground v.1.15,2013-05-02 02:52:00,
2013-05-01 20:54:00,44.3,13.2,30.35,North,11,2.0,7.0,28,0.00,,,0.16,Wunderground v.1.15,2013-05-02 02:54:00,
2013-05-01 20:56:00,44.1,12.2,30.35,NNW,348,2.0,7.0,27,0.00,,,0.16,Wunderground v.1.15,2013-05-02 02:56:00,
2013-05-01 20:58:00,44.1,12.2,30.35,NNW,346,2.0,7.0,27,0.00,,,0.16,Wunderground v.1.15,2013-05-02 02:58:00,
2013-05-01 21:02:00,43.8,12.8,30.36,NNW,328,2.0,2.0,28,0.00,,,0.16,Wunderground v.1.15,2013-05-02 03:02:00,
2013-05-01 21:04:00,43.8,12.8,30.36,North,350,1.0,2.0,28,0.00,,,0.16,Wunderground v.1.15,2013-05-02 03:04:00,
2013-05-01 21:06:00,43.6,12.6,30.36,North,32767,1.0,2.0,28,0.00,,,0.16,Wunderground v.1.15,2013-05-02 03:06:00,
2013-05-01 21:08:00,43.6,12.6,30.36,NNE,26,1.0,2.0,28,0.00,,,0.16,Wunderground v.1.15,2013-05-02 03:08:00,
2013-05-01 21:14:00,43.5,13.3,30.36,NNE,28,1.0,1.0,29,0.00,,,0.16,Wunderground v.1.15,2013-05-02 03:14:00,
2013-05-01 21:16:00,43.5,13.3,30.36,NNE,28,1.0,1.0,29,0.00,,,0.16,Wunderground v.1.15,2013-05-02 03:16:00,
2013-05-01 21:20:00,43.5,14.1,30.36,North,5,2.0,2.0,30,0.00,,,0.16,Wunderground v.1.15,2013-05-02 03:20:00,
2013-05-01 21:22:00,43.5,14.1,30.36,North,5,2.0,2.0,30,0.00,,,0.16,Wunderground v.1.15,2013-05-02 03:22:00,
2013-05-01 21:24:00,43.5,14.1,30.36,NNE,27,2.0,6.0,30,0.00,,,0.16,Wunderground v.1.15,2013-05-02 03:24:00,
2013-05-01 21:26:00,43.5,14.1,30.36,NNE,15,2.0,6.0,30,0.00,,,0.16,Wunderground v.1.15,2013-05-02 03:26:00,
2013-05-01 21:28:00,43.3,13.9,30.36,NNE,17,2.0,6.0,30,0.00,,,0.16,Wunderground v.1.15,2013-05-02 03:28:00,
2013-05-01 21:30:00,43.3,13.9,30.36,NNE,14,2.0,2.0,30,0.00,,,0.16,Wunderground v.1.15,2013-05-02 03:30:00,
2013-05-01 21:34:00,43.2,13.8,30.38,North,9,1.0,2.0,30,0.00,,,0.16,Wunderground v.1.15,2013-05-02 03:34:00,
2013-05-01 21:36:00,43.1,14.5,30.38,North,9,1.0,2.0,31,0.00,,,0.16,Wunderground v.1.15,2013-05-02 03:36:00,
2013-05-01 21:40:00,42.9,15.0,30.38,North,9,0.0,0.0,32,0.00,,,0.16,Wunderground v.1.15,2013-05-02 03:40:00,
2013-05-01 21:42:00,42.8,15.6,30.38,North,9,0.0,1.0,33,0.00,,,0.16,Wunderground v.1.15,2013-05-02 03:42:00,
2013-05-01 21:44:00,42.6,14.8,30.38,North,10,0.0,1.0,32,0.00,,,0.16,Wunderground v.1.15,2013-05-02 03:44:00,
2013-05-01 21:48:00,42.3,14.5,30.39,North,9,0.0,1.0,32,0.00,,,0.16,Wunderground v.1.15,2013-05-02 03:48:00,
2013-05-01 21:50:00,42.2,14.4,30.39,WNW,302,0.0,0.0,32,0.00,,,0.16,Wunderground v.1.15,2013-05-02 03:50:00,
2013-05-01 21:52:00,41.9,14.8,30.39,WNW,303,1.0,1.0,33,0.00,,,0.16,Wunderground v.1.15,2013-05-02 03:52:00,
2013-05-01 21:58:00,41.5,15.2,30.39,WNW,302,1.0,1.0,34,0.00,,,0.16,Wunderground v.1.15,2013-05-02 03:58:00,
2013-05-01 22:02:00,41.2,14.9,30.42,WNW,302,0.0,0.0,34,0.00,,,0.16,Wunderground v.1.15,2013-05-02 04:02:00,
2013-05-01 22:06:00,40.8,15.2,30.42,WNW,303,0.0,0.0,35,0.00,,,0.16,Wunderground v.1.15,2013-05-02 04:06:00,
2013-05-01 22:08:00,40.6,15.0,30.42,WNW,302,0.0,0.0,35,0.00,,,0.16,Wunderground v.1.15,2013-05-02 04:08:00,
2013-05-01 22:12:00,40.3,15.4,30.42,WNW,302,0.0,0.0,36,0.00,,,0.16,Wunderground v.1.15,2013-05-02 04:12:00,
2013-05-01 22:14:00,40.1,15.9,30.42,WNW,302,0.0,0.0,37,0.00,,,0.16,Wunderground v.1.15,2013-05-02 04:14:00,
2013-05-01 22:16:00,39.9,16.3,30.45,WNW,302,0.0,0.0,38,0.00,,,0.16,Wunderground v.1.15,2013-05-02 04:16:00,
2013-05-01 22:18:00,39.8,16.8,30.45,WNW,302,0.0,0.0,39,0.00,,,0.16,Wunderground v.1.15,2013-05-02 04:18:00,
2013-05-01 22:20:00,39.6,16.6,30.45,WNW,302,0.0,0.0,39,0.00,,,0.16,Wunderground v.1.15,2013-05-02 04:20:00,
2013-05-01 22:22:00,39.5,16.6,30.45,WNW,302,0.0,0.0,39,0.00,,,0.16,Wunderground v.1.15,2013-05-02 04:22:00,
2013-05-01 22:24:00,39.3,16.4,30.45,WNW,302,0.0,0.0,39,0.00,,,0.16,Wunderground v.1.15,2013-05-02 04:24:00,
2013-05-01 22:28:00,39.2,16.9,30.45,WNW,302,0.0,1.0,40,0.00,,,0.16,Wunderground v.1.15,2013-05-02 04:28:00,
2013-05-01 22:30:00,39.1,16.8,30.46,WNW,302,0.0,0.0,40,0.00,,,0.16,Wunderground v.1.15,2013-05-02 04:30:00,
2013-05-01 22:32:00,38.9,17.2,30.46,WNW,302,0.0,0.0,41,0.00,,,0.16,Wunderground v.1.15,2013-05-02 04:32:00,
2013-05-01 22:38:00,38.8,17.6,30.46,WNW,302,0.0,6.0,42,0.00,,,0.16,Wunderground v.1.15,2013-05-02 04:38:00,
2013-05-01 22:42:00,38.6,17.5,30.46,WNW,303,1.0,2.0,42,0.00,,,0.16,Wunderground v.1.15,2013-05-02 04:42:00,
2013-05-01 22:44:00,38.6,17.5,30.46,WNW,302,1.0,2.0,42,0.00,,,0.16,Wunderground v.1.15,2013-05-02 04:44:00,
2013-05-01 22:46:00,38.6,17.5,30.47,WNW,302,1.0,2.0,42,0.00,,,0.16,Wunderground v.1.15,2013-05-02 04:46:00,
2013-05-01 22:50:00,38.6,17.5,30.47,WNW,303,1.0,1.0,42,0.00,,,0.16,Wunderground v.1.15,2013-05-02 04:50:00,
2013-05-01 22:52:00,38.6,17.5,30.47,WNW,302,1.0,1.0,42,0.00,,,0.16,Wunderground v.1.15,2013-05-02 04:52:00,
2013-05-01 22:54:00,38.6,17.5,30.47,WNW,302,1.0,1.0,42,0.00,,,0.16,Wunderground v.1.15,2013-05-02 04:54:00,
2013-05-01 22:56:00,38.5,17.4,30.47,WNW,302,1.0,1.0,42,0.00,,,0.16,Wunderground v.1.15,2013-05-02 04:56:00,
2013-05-01 22:58:00,38.5,17.9,30.47,WNW,302,1.0,1.0,43,0.00,,,0.16,Wunderground v.1.15,2013-05-02 04:58:00,
2013-05-01 23:00:00,38.3,17.7,30.47,WNW,302,0.0,0.0,43,0.00,,,0.16,Wunderground v.1.15,2013-05-02 05:00:00,
2013-05-01 23:02:00,38.3,17.7,30.49,WNW,302,0.0,0.0,43,0.00,,,0.16,Wunderground v.1.15,2013-05-02 05:02:00,
2013-05-01 23:06:00,38.2,17.6,30.49,WNW,302,0.0,0.0,43,0.00,,,0.16,Wunderground v.1.15,2013-05-02 05:06:00,
2013-05-01 23:08:00,38.0,17.5,30.49,WNW,302,0.0,0.0,43,0.00,,,0.16,Wunderground v.1.15,2013-05-02 05:08:00,
2013-05-01 23:12:00,37.9,17.4,30.49,WNW,302,0.0,0.0,43,0.00,,,0.16,Wunderground v.1.15,2013-05-02 05:12:00,
2013-05-01 23:14:00,37.8,17.8,30.49,WNW,302,0.0,0.0,44,0.00,,,0.16,Wunderground v.1.15,2013-05-02 05:14:00,
2013-05-01 23:16:00,37.6,17.6,30.47,WNW,302,0.0,0.0,44,0.00,,,0.16,Wunderground v.1.15,2013-05-02 05:16:00,
2013-05-01 23:20:00,37.3,17.4,30.47,WNW,302,0.0,0.0,44,0.00,,,0.16,Wunderground v.1.15,2013-05-02 05:20:00,
2013-05-01 23:22:00,37.2,17.3,30.47,WNW,302,0.0,0.0,44,0.00,,,0.16,Wunderground v.1.15,2013-05-02 05:22:00,
2013-05-01 23:24:00,37.0,17.6,30.47,WNW,302,0.0,0.0,45,0.00,,,0.16,Wunderground v.1.15,2013-05-02 05:24:00,
2013-05-01 23:26:00,36.9,17.5,30.47,WNW,303,0.0,0.0,45,0.00,,,0.16,Wunderground v.1.15,2013-05-02 05:26:00,
2013-05-01 23:28:00,36.8,17.9,30.47,WNW,302,0.0,0.0,46,0.00,,,0.16,Wunderground v.1.15,2013-05-02 05:28:00,
2013-05-01 23:30:00,36.6,17.7,30.47,WNW,302,0.0,0.0,46,0.00,,,0.16,Wunderground v.1.15,2013-05-02 05:30:00,
2013-05-01 23:32:00,36.6,17.7,30.47,WNW,302,0.0,0.0,46,0.00,,,0.16,Wunderground v.1.15,2013-05-02 05:32:00,
2013-05-01 23:36:00,36.5,17.7,30.47,WNW,302,0.0,0.0,46,0.00,,,0.16,Wunderground v.1.15,2013-05-02 05:36:00,
2013-05-01 23:38:00,36.5,18.2,30.47,WNW,302,0.0,0.0,47,0.00,,,0.16,Wunderground v.1.15,2013-05-02 05:38:00,
2013-05-01 23:40:00,36.5,18.6,30.47,WNW,302,0.0,0.0,48,0.00,,,0.16,Wunderground v.1.15,2013-05-02 05:40:00,
2013-05-01 23:42:00,36.3,19.4,30.47,WNW,302,0.0,0.0,50,0.00,,,0.16,Wunderground v.1.15,2013-05-02 05:42:00,
2013-05-01 23:44:00,36.2,19.3,30.47,WNW,302,0.0,0.0,50,0.00,,,0.16,Wunderground v.1.15,2013-05-02 05:44:00,
2013-05-01 23:46:00,36.2,19.3,30.50,WNW,302,0.0,0.0,50,0.00,,,0.16,Wunderground v.1.15,2013-05-02 05:46:00,
2013-05-01 23:48:00,36.0,19.1,30.50,WNW,302,0.0,0.0,50,0.00,,,0.16,Wunderground v.1.15,2013-05-02 05:48:00,
2013-05-01 23:50:00,35.9,19.5,30.50,WNW,302,0.0,0.0,51,0.00,,,0.16,Wunderground v.1.15,2013-05-02 05:50:00,
2013-05-01 23:52:00,35.9,19.5,30.50,WNW,302,0.0,0.0,51,0.00,,,0.16,Wunderground v.1.15,2013-05-02 05:52:00,
2013-05-01 23:54:00,35.8,19.4,30.50,WNW,302,0.0,0.0,51,0.00,,,0.16,Wunderground v.1.15,2013-05-02 05:54:00,
2013-05-01 23:56:00,35.8,19.9,30.50,WNW,302,0.0,0.0,52,0.00,,,0.16,Wunderground v.1.15,2013-05-02 05:56:00,